• Em Portugal
  • Lista de países
  • Para 7 dias
  • Temperatura da água
  • Mapas de satélite
  • Mapa do tempo
  • Widgets de tempo
  • user-avatar
    Iniciar Sessão

    Previsão horária em Zaborow

    Hoje, 21 Setembro, Sexta-feira

    Tempo Temperatura Precipitação Vento Pressão Humidade
    00:00 +16°C° 0 mm 1 m/s 744 mmHg 73%
    01:00 +16°C° 0 mm 1 m/s 744 mmHg 74%
    02:00 +16°C° 0 mm 1 m/s 744 mmHg 75%
    03:00 +15°C° 0 mm 1 m/s 744 mmHg 76%
    04:00 +15°C° 0 mm 1 m/s 743 mmHg 77%
    05:00 +16°C° 0 mm 1 m/s 743 mmHg 76%
    06:00 +18°C° 0 mm 1 m/s 743 mmHg 74%
    07:00 +18°C° 0 mm 2 m/s 744 mmHg 70%
    08:00 +20°C° 0 mm 2 m/s 743 mmHg 63%
    09:00 +23°C° 0 mm 2 m/s 743 mmHg 57%
    10:00 +25°C° 0 mm 3 m/s 743 mmHg 50%
    11:00 +26°C° 0 mm 3 m/s 743 mmHg 47%
    12:00 +27°C° 0 mm 3 m/s 742 mmHg 44%
    13:00 +28°C° 0 mm 4 m/s 742 mmHg 41%
    14:00 +27°C° 0 mm 4 m/s 742 mmHg 45%
    15:00 +27°C° 0 mm 3 m/s 741 mmHg 49%
    16:00 +26°C° 0 mm 3 m/s 741 mmHg 53%
    17:00 +24°C° 0 mm 3 m/s 741 mmHg 56%
    18:00 +21°C° 0 mm 3 m/s 740 mmHg 59%
    19:00 +20°C° 0 mm 4 m/s 740 mmHg 62%
    20:00 +19°C° 0 mm 4 m/s 740 mmHg 63%
    21:00 +19°C° 0 mm 4 m/s 740 mmHg 63%
    22:00 +18°C° 0 mm 4 m/s 740 mmHg 64%
    23:00 +18°C° 0 mm 4 m/s 740 mmHg 62%

    Amanhã, 22 Setembro, Sábado

    Tempo Temperatura Precipitação Vento Pressão Humidade
    00:00 +19°C° 0 mm 4 m/s 740 mmHg 60%
    01:00 +19°C° 0 mm 4 m/s 739 mmHg 58%
    02:00 +19°C° 0 mm 4 m/s 740 mmHg 58%
    03:00 +19°C° 0 mm 4 m/s 740 mmHg 58%
    04:00 +19°C° 0 mm 5 m/s 740 mmHg 58%
    05:00 +18°C° 0.6 mm 4 m/s 741 mmHg 68%
    06:00 +15°C° 0.6 mm 4 m/s 742 mmHg 78%
    07:00 +14°C° 0.6 mm 4 m/s 743 mmHg 87%
    08:00 +14°C° 0.7 mm 4 m/s 743 mmHg 87%
    09:00 +13°C° 0.7 mm 3 m/s 744 mmHg 88%
    10:00 +14°C° 0.7 mm 2 m/s 744 mmHg 88%
    11:00 +14°C° 0.9 mm 2 m/s 744 mmHg 86%
    12:00 +14°C° 0.9 mm 2 m/s 744 mmHg 85%
    13:00 +14°C° 0.9 mm 2 m/s 745 mmHg 83%
    14:00 +14°C° 0.1 mm 2 m/s 744 mmHg 81%
    15:00 +14°C° 0.1 mm 2 m/s 744 mmHg 79%
    16:00 +14°C° 0.1 mm 2 m/s 744 mmHg 77%
    17:00 +12°C° 0 mm 3 m/s 744 mmHg 80%
    18:00 +11°C° 0 mm 3 m/s 744 mmHg 83%
    19:00 +10°C° 0 mm 3 m/s 744 mmHg 86%
    20:00 +10°C° 0 mm 3 m/s 744 mmHg 84%
    21:00 +10°C° 0 mm 3 m/s 744 mmHg 83%
    22:00 +10°C° 0 mm 3 m/s 744 mmHg 81%
    23:00 +10°C° 0 mm 3 m/s 745 mmHg 80%

    Depois de amanhã, 23 Setembro, Domingo

    Tempo Temperatura Precipitação Vento Pressão Humidade
    00:00 +10°C° 0 mm 3 m/s 745 mmHg 80%
    01:00 +10°C° 0 mm 3 m/s 745 mmHg 79%
    02:00 +10°C° 0 mm 3 m/s 745 mmHg 80%
    03:00 +9°C° 0 mm 3 m/s 745 mmHg 82%
    04:00 +9°C° 0 mm 3 m/s 744 mmHg 84%
    05:00 +9°C° 0 mm 3 m/s 744 mmHg 82%
    06:00 +10°C° 0 mm 3 m/s 744 mmHg 79%
    07:00 +11°C° 0 mm 3 m/s 745 mmHg 77%
    08:00 +12°C° 0 mm 3 m/s 745 mmHg 72%
    09:00 +13°C° 0 mm 4 m/s 745 mmHg 66%
    10:00 +15°C° 0 mm 4 m/s 745 mmHg 60%
    11:00 +15°C° 0.1 mm 4 m/s 744 mmHg 59%
    12:00 +17°C° 0.1 mm 4 m/s 744 mmHg 57%
    13:00 +18°C° 0.1 mm 4 m/s 744 mmHg 56%
    14:00 +17°C° 0.1 mm 3 m/s 743 mmHg 60%
    15:00 +16°C° 0.1 mm 3 m/s 743 mmHg 64%
    16:00 +16°C° 0.1 mm 2 m/s 743 mmHg 68%
    17:00 +15°C° 0 mm 2 m/s 743 mmHg 69%
    18:00 +15°C° 0 mm 1 m/s 742 mmHg 70%
    19:00 +14°C° 0 mm 1 m/s 742 mmHg 71%
    20:00 +14°C° 0 mm 2 m/s 741 mmHg 73%
    21:00 +12°C° 0 mm 3 m/s 740 mmHg 75%
    22:00 +12°C° 0 mm 4 m/s 740 mmHg 78%
    23:00 +13°C° 0.1 mm 5 m/s 738 mmHg 75%

    24 Setembro, Segunda-feira

    Tempo Temperatura Precipitação Vento Pressão Humidade
    00:00 +12°C° 0.1 mm 7 m/s 736 mmHg 72%
    01:00 +13°C° 0.1 mm 9 m/s 735 mmHg 69%
    02:00 +13°C° 1.6 mm 9 m/s 733 mmHg 71%
    03:00 +13°C° 1.6 mm 10 m/s 732 mmHg 73%
    04:00 +13°C° 1.6 mm 11 m/s 730 mmHg 76%
    05:00 +13°C° 2.1 mm 11 m/s 730 mmHg 78%
    06:00 +13°C° 2.1 mm 11 m/s 729 mmHg 81%
    07:00 +13°C° 2.1 mm 11 m/s 729 mmHg 84%
    08:00 +12°C° 0.3 mm 11 m/s 731 mmHg 82%
    09:00 +9°C° 0.3 mm 11 m/s 733 mmHg 80%
    10:00 +8°C° 0.3 mm 12 m/s 735 mmHg 78%
    11:00 +8°C° 0.1 mm 11 m/s 737 mmHg 74%
    12:00 +9°C° 0.1 mm 10 m/s 738 mmHg 71%
    13:00 +11°C° 0.1 mm 9 m/s 740 mmHg 68%
    14:00 +11°C° 0.3 mm 9 m/s 741 mmHg 68%
    15:00 +10°C° 0.3 mm 8 m/s 741 mmHg 68%
    16:00 +10°C° 0.3 mm 7 m/s 742 mmHg 68%
    17:00 +9°C° 0.1 mm 7 m/s 743 mmHg 69%
    18:00 +8°C° 0.1 mm 6 m/s 743 mmHg 70%
    19:00 +7°C° 0.1 mm 5 m/s 744 mmHg 71%
    20:00 +7°C° 0 mm 5 m/s 745 mmHg 71%
    21:00 +6°C° 0 mm 5 m/s 745 mmHg 72%
    22:00 +6°C° 0 mm 5 m/s 746 mmHg 72%
    23:00 +6°C° 0 mm 5 m/s 746 mmHg 74%

    25 Setembro, Terça-feira

    Tempo Temperatura Precipitação Vento Pressão Humidade
    00:00 +6°C° 0 mm 5 m/s 746 mmHg 75%
    01:00 +6°C° 0 mm 5 m/s 747 mmHg 76%
    02:00 +5°C° 0 mm 5 m/s 747 mmHg 77%
    03:00 +5°C° 0 mm 5 m/s 748 mmHg 78%
    04:00 +3°C° 0 mm 5 m/s 748 mmHg 79%
    05:00 +5°C° 0 mm 5 m/s 749 mmHg 77%
    06:00 +4°C° 0 mm 6 m/s 750 mmHg 76%
    07:00 +5°C° 0 mm 6 m/s 750 mmHg 74%
    08:00 +7°C° 0.1 mm 6 m/s 751 mmHg 69%
    09:00 +8°C° 0.1 mm 7 m/s 751 mmHg 63%
    10:00 +9°C° 0.1 mm 7 m/s 751 mmHg 58%
    11:00 +10°C° 0.2 mm 7 m/s 751 mmHg 55%
    12:00 +10°C° 0.2 mm 7 m/s 752 mmHg 52%
    13:00 +10°C° 0.2 mm 7 m/s 752 mmHg 49%
    14:00 +10°C° 0.1 mm 7 m/s 752 mmHg 51%
    15:00 +9°C° 0.1 mm 6 m/s 752 mmHg 54%
    16:00 +9°C° 0.1 mm 5 m/s 753 mmHg 56%
    17:00 +8°C° 0 mm 5 m/s 753 mmHg 59%
    18:00 +7°C° 0 mm 4 m/s 753 mmHg 61%
    19:00 +5°C° 0 mm 3 m/s 754 mmHg 64%
    20:00 +5°C° 0 mm 3 m/s 754 mmHg 65%
    21:00 +5°C° 0 mm 3 m/s 754 mmHg 65%
    22:00 +5°C° 0 mm 3 m/s 754 mmHg 66%
    23:00 +5°C° 0 mm 3 m/s 754 mmHg 67%

    26 Setembro, Quarta-feira

    Tempo Temperatura Precipitação Vento Pressão Humidade
    00:00 +5°C° 0 mm 4 m/s 754 mmHg 67%
    01:00 +4°C° 0 mm 4 m/s 754 mmHg 68%
    02:00 +4°C° 0 mm 4 m/s 754 mmHg 68%
    03:00 +4°C° 0 mm 4 m/s 754 mmHg 69%
    04:00 +4°C° 0 mm 4 m/s 754 mmHg 69%
    05:00 +5°C° 0 mm 5 m/s 753 mmHg 68%
    06:00 +6°C° 0 mm 5 m/s 753 mmHg 67%
    07:00 +7°C° 0 mm 5 m/s 753 mmHg 66%
    08:00 +8°C° 0 mm 5 m/s 753 mmHg 63%
    09:00 +9°C° 0 mm 6 m/s 753 mmHg 61%
    10:00 +10°C° 0 mm 6 m/s 753 mmHg 58%
    11:00 +11°C° 0 mm 6 m/s 752 mmHg 54%
    12:00 +13°C° 0 mm 6 m/s 752 mmHg 51%
    13:00 +14°C° 0 mm 6 m/s 752 mmHg 47%
    14:00 +13°C° 0 mm 5 m/s 751 mmHg 49%
    15:00 +13°C° 0 mm 4 m/s 751 mmHg 51%
    16:00 +13°C° 0 mm 3 m/s 750 mmHg 53%
    17:00 +12°C° 0 mm 3 m/s 751 mmHg 54%
    18:00 +12°C° 0 mm 2 m/s 751 mmHg 56%
    19:00 +10°C° 0 mm 2 m/s 751 mmHg 57%
    20:00 +10°C° 0 mm 2 m/s 751 mmHg 58%
    21:00 +9°C° 0 mm 2 m/s 751 mmHg 58%
    22:00 +9°C° 0 mm 2 m/s 751 mmHg 59%
    23:00 +9°C° 0 mm 2 m/s 751 mmHg 59%
    Mostrar mais